Вернуться в каталог

STARLINK-33800

АктивенСвязьVLEO
NORAD 63576·PAYLOAD·🇺🇸 United States

Запущен Apr 14, 2025 с Cape Canaveral Space Force Station

Loading…

Ближайшие Пролёты (ближайшие 24 часа)

TLE

СвежийSource: CelesTrak SupGP

Эпоха: Sep 15, 2026, 03:14 UTC

1 63576C 25076H   26258.13520833  .00043889  00000+0  15895-2 0  2584
2 63576  43.0027 331.6195 0001312 260.1703 178.5428 15.27559668    19

Отслеживайте STARLINK-33800 в реальном времени с AllMySat

Download on the App Store